Regional Weather Roundup
Issued by NWS

Home | Current Version | Previous Version | Text Only | Print | Product List | Glossary On
Versions: 1 2 3 4 5 6 7 8 9 10 11 12 13 14 15 16 17 18 19 20 21 22 23 24 25 26 27
000
ASUS44 KLIX 051211
RWRLA
LOUISIANA WEATHER ROUNDUP
NATIONAL WEATHER SERVICE NEW ORLEANS LA
700 AM CDT THU MAY 05 2016

NOTE: "FAIR" INDICATES FEW OR NO CLOUDS BELOW 12,000 FEET WITH NO
      SIGNIFICANT WEATHER AND/OR OBSTRUCTIONS TO VISIBILITY.
      SKY/WX - SKY CONDITION AND SIGNIFICANT WEATHER.
      TMP - AIR TEMPERATURE.    DP   - DEWPOINT TEMPERATURE.
      RH  - RELATIVE HUMIDITY.  PRES - PRESSURE.
      HX  - HEAT INDEX.         WCI  - WIND CHILL INDEX.

*  THESE STATIONS ARE NOT NWS OR FAA STATIONS AND ARE NOT UNDER
   NWS QUALITY CONTROL.

LAZ040-048-061>063-065-066-069-051300-
SOUTHEAST LOUISIANA

CITY           SKY/WX    TMP DP  RH WIND       PRES   REMARKS
N.O. AUDUBON     N/A     64  59  82 MISG        N/A
6HR MIN TEMP:  17; 6HR MAX TEMP:  19;

N.O. INTL ARPT PTCLDY    65  57  75 NW7       29.91R
6HR MIN TEMP:  63; 6HR MAX TEMP:  66;

N.O. LAKEFRONT CLEAR     67  59  75 NW16      29.91R
6HR MIN TEMP:  67; 6HR MAX TEMP:  70;

N.O. DOWNTOWN* FAIR      67  57  70 CALM      29.92R
6HR MIN TEMP:  66; 6HR MAX TEMP:  70;

RESERVE*       FAIR      63  58  82 NW5       29.92R
6HR MIN TEMP:  62; 6HR MAX TEMP:  64;

SLIDELL        CLEAR     60  55  83 NW3       29.90R
6HR MIN TEMP:  59; 6HR MAX TEMP:  63;

BATON ROUGE    CLEAR     61  54  77 NW5       29.93R
6HR MIN TEMP:  60; 6HR MAX TEMP:  63;

BOOTHVILLE     CLEAR     69  60  73 W8        29.91R
6HR MIN TEMP:  64; 6HR MAX TEMP:  69;

BELLE CHASSE   PTCLDY    62  58  86 CALM      29.91R
6HR MIN TEMP:  58; 6HR MAX TEMP:  63;

BOGALUSA*      FAIR      55  52  89 CALM      29.92R
6HR MIN TEMP:  55; 6HR MAX TEMP:  64;

GALLIANO*      SUNNY     68  60  75 NW8       29.92R
6HR MIN TEMP:  59; 6HR MAX TEMP:  68;

NEW ROADS*     FAIR      61  56  85 CALM      29.95R
6HR MIN TEMP:  59; 6HR MAX TEMP:  62;

GONZALES*      FAIR      62  56  81 NW5       29.92R
6HR MIN TEMP:  61; 6HR MAX TEMP:  65;

HAMMOND*       CLEAR     57  52  82 CALM      29.92R
HOUMA*         NOT AVBL
PORT FOURCHON* SUNNY     72  63  73 NW13      29.92R

$$

LAZ041-044-053-054-051300-
SOUTHWEST LOUISIANA

CITY           SKY/WX    TMP DP  RH WIND       PRES   REMARKS
LAKE CHARLES   CLEAR     61  55  81 NW5       29.98R
6HR MIN TEMP:  61; 6HR MAX TEMP:  66;

LAFAYETTE      CLEAR     63  55  75 NW7       29.95R
6HR MIN TEMP:  62; 6HR MAX TEMP:  68;

PATTERSON      NOT AVBL
SALT POINT       N/A     69  58  67 VRB6      29.93R
6HR MIN TEMP:  69; 6HR MAX TEMP:  72;

NEW IBERIA     CLEAR     61  57  87 NW3       29.96R
6HR MIN TEMP:  60; 6HR MAX TEMP:  65;

CHENAULT AIRPK CLEAR     61  54  77 NW6       29.98R

$$

LAZ027-028-051300-
CENTRAL LOUISIANA

CITY           SKY/WX    TMP DP  RH WIND       PRES   REMARKS
FORT POLK      CLEAR     58  52  82 N7        29.99R
6HR MIN TEMP:  56; 6HR MAX TEMP:  64;

ALEXANDRIA INT CLEAR     55  53  93 NW6       29.97R
6HR MIN TEMP:  53; 6HR MAX TEMP:  62;

ALEXANDRIA     CLEAR     61  49  64 CALM      29.97R
6HR MIN TEMP:  58; 6HR MAX TEMP:  64;


$$

LAZ001-002-051300-
NORTHWEST LOUISIANA

CITY           SKY/WX    TMP DP  RH WIND       PRES   REMARKS
SHREVEPORT     CLEAR     54  49  83 W3        30.01R
6HR MIN TEMP:  54; 6HR MAX TEMP:  65;

BARKSDALE AFB  CLEAR     54  49  81 CALM      30.01R
6HR MIN TEMP:  54; 6HR MAX TEMP:  61;

DTN SHREVEPORT CLEAR     56  50  80 CALM      30.01R
6HR MIN TEMP:  55; 6HR MAX TEMP:  67;


$$

LAZ014-016-051300-
NORTHEAST LOUISIANA

CITY           SKY/WX    TMP DP  RH WIND       PRES   REMARKS
MONROE         CLEAR     55  50  83 CALM      29.99R
6HR MIN TEMP:  53; 6HR MAX TEMP:  65;

TALLULAH       CLEAR     61  49  64 N13       29.96R
6HR MIN TEMP:  60; 6HR MAX TEMP:  67;


$$





USA.gov is the U.S. government's official web portal to all federal, state and local government web resources and services.